Location: Haliburton Scout Reserve
(45.0900°N, 78.3200°W)
Time: 07:56:07
(UTC-04:00)

S-56A Canister/Altair - Pass Details

Date: 01 February 2023
Orbit: 639 x 2493 km, 38.9° (Epoch: 27 March)

Event Time Altitude Azimuth Distance (km) Brightness Sun altitude
Rises 15:46:15 0° 271° (W) 3,517 11.7 13.2°
Reaches altitude 10° 15:48:35 10° 264° (W) 2,756 11.5 12.9°
Maximum altitude 15:54:50 42° 195° (SSW) 1,754 10.2 12.1°
Drops below altitude 10° 16:04:01 10° 130° (SE) 4,025 11.1 10.8°
Sets 16:08:09 0° 124° (SE) 5,316 11.6 10.2°
